Regional Weather Roundup
Issued by NWS

Home | Current Version | Previous Version | Text Only | Print | Product List | Glossary Off
Versions: 1 2 3 4 5 6 7 8 9 10 11 12 13 14 15 16 17 18 19 20 21 22 23 24 25 26 27 28 29 30 31 32 33 34 35 36 37 38 39 40 41 42 43 44 45 46 47 48 49 50

000
ASUS43 KMPX 071010
RWRMN
WEATHER ROUNDUP FOR MINNESOTA
NATIONAL WEATHER SERVICE TWIN CITIES/CHANHASSEN MN
400 AM CST WED DEC 07 2016


NOTE: "FAIR" INDICATES FEW OR NO CLOUDS BELOW 12,000 FEET WITH NO
SIGNIFICANT WEATHER AND/OR OBSTRUCTIONS TO VISIBILITY. N/A MEANS
CURRENT SKY AND/OR WEATHER CONDITIONS ARE NOT AVAILABLE.

MNZ060>063-068>070-071100-
   Twin Cities Metro

CITY           SKY/WX    TMP DP  RH WIND       PRES   REMARKS
TWIN CITIES    LGT SNOW  17  10  74 W14G24    29.92R WCI   3
ST PAUL        LGT SNOW  18  32 100 W13G23    29.93R WCI   5
CRYSTAL        FLURRIES  18   8  65 W18G28    29.89R WCI   2
BLAINE         CLOUDY    19  10  68 W13G26    29.88R WCI   7
LAKEVILLE      FLURRIES  14   9  79 W16G29    29.94R WCI  -2
EDEN PRAIRIE   CLOUDY    17   8  67 W18G25    29.92R WCI   1
SOUTH ST PAUL  FLURRIES  18  11  73 SW16G23   29.92R WCI   3
LAKE ELMO      LGT SNOW  19  14  79 W17       29.90R WCI   4
$$
MNZ001>005-007-008-013>017-022>024-027-028-071100-
   Northwest Minnesota

CITY           SKY/WX    TMP DP  RH WIND       PRES   REMARKS
BEMIDJI        LGT SNOW  15  12  88 W23G31    29.68R WCI  -4
HALLOCK        LGT SNOW  18  16  93 NW29G36   29.73R VSB 1   WCI  -2
ROSEAU         LGT SNOW  21  18  86 W17G30    29.62R WCI   7
WARROAD        LGT SNOW  21  18  86 W13       29.59R WCI   9
THIEF RVR FALL LGT SNOW  15  12  88 W25G32    29.74R FOG     WCI  -4
CROOKSTON      LGT SNOW  16  12  86 NW32G38   29.80R VSB 3/4 WCI  -5
FOSSTON        LGT SNOW  12  10  92 W23G32    29.75R WCI  -7
DETROIT LAKES  LGT SNOW  14  10  85 W23G35    29.81S WCI  -5
MOORHEAD       MIX PCPN  10   7  85 W28G37    29.90R WCI -11
PARK RAPIDS    LGT SNOW  14   8  77 W18       29.74R VSB 1   WCI  -3
$$
MNZ006-009>011-018-025>026-071100-
   North Central Minnesota

CITY           SKY/WX    TMP DP  RH WIND       PRES   REMARKS
BAUDETTE       LGT SNOW  22  19  89 W16       29.54R FOG     WCI   8
FLAG ISLAND    CLOUDY    25  21  86 NW22      29.54R WCI  10
INTL FALLS     LGT SNOW  23  20  88 W6        29.52R VSB 3/4 WCI  16
WASKISH        LGT SNOW  21  19  93 W25G33    29.60R WCI   4
BIG FORK       LGT SNOW  19  16  86 W13G22    29.58R WCI   7
LONGVILLE      LGT SNOW  16  10  79 W13G20    29.70R WCI   2
GRAND RAPIDS   LGT SNOW  17  13  84 W14G23    29.65R FOG     WCI   3
CRANE LAKE     LGT SNOW  19  18  93 CALM      29.54S VSB 1
ORR            FLURRIES  19  18  93 SW10      29.51R WCI   8
COOK           LGT SNOW  19  18  93 SW13      29.55R WCI   7
$$
MNZ012-019>021-037-071100-
   Northeast Minnesota

CITY           SKY/WX    TMP DP  RH WIND       PRES   REMARKS
DULUTH         FLURRIES  17  12  80 W22G31    29.62R WCI   0
ELY            LGT SNOW  19  18  93 SW9G17    29.52R WCI   9
HIBBING        LGT SNOW  17  13  84 W9G17     29.59R FOG     WCI   6
EVELETH        LGT SNOW  20  16  84 SW20      29.58S WCI   4
DULUTH HARBOR  MOCLDY    21  16  79 SW22G31   29.68S WCI   5
TWO HARBORS    MOCLDY    21  14  73 W14G23    29.59R WCI   8
SILVER BAY     MOCLDY    19  16  86 SW7       29.56R WCI  10
GRAND MARAIS     N/A     28  23  81 W8G16     29.55R WCI  20
G MARAIS ARPRT LGT SNOW  18  12  79 SW5       29.47R WCI  11
$$
MNZ029>031-032-039>041-046>048-054>057-064-071100-
   West Central Minnesota

CITY           SKY/WX    TMP DP  RH WIND       PRES   REMARKS
FERGUS FALLS   CLOUDY    10   7  85 NW25G31   29.95R HAZE    WCI -10
WHEATON        MOCLDY    14  10  85 W21G28    29.98R WCI  -4
MORRIS         LGT SNOW  12   9  85 W21G29    29.94R WCI  -6
ALEXANDRIA     LGT SNOW  11   7  84 W22G31    29.87R FOG     WCI  -8
ELBOW LAKE     CLOUDY    10   7  85 NW18G28   29.93R WCI  -8
WADENA         LGT SNOW  10   9  92 W18G25    29.80R WCI  -8
GLENWOOD       LGT SNOW  12   9  85 W28       29.89R WCI  -9
APPLETON       CLOUDY    16   7  67 W23G29    29.99R WCI  -2
BENSON         CLOUDY    16   7  67 NW24G30   29.95R WCI  -3
ORTONVILLE     CLOUDY    14   7  73 W20G28    29.99R WCI  -3
MADISON        PTCLDY    16   7  67 W24G32    30.02R WCI  -3
WILLMAR        CLOUDY    16  10  79 W23       29.96R WCI  -2
$$
MNZ033>034-036-042>043-049>051-058-059-071100-
   Central Minnesota

CITY           SKY/WX    TMP DP  RH WIND       PRES   REMARKS
ST CLOUD       FLURRIES  14   8  77 W23G30    29.86R WCI  -5
PAYNESVILLE    CLOUDY    14   9  80 W23G32    29.91R WCI  -5
AITKIN         FLURRIES  18   9  68 W16G28    29.71S WCI   3
PINE RIVER     FLURRIES  14   9  79 W9G18     29.77R WCI   2
BRAINERD       LGT SNOW  14   9  80 W17G25    29.77R WCI  -3
STAPLES        FLURRIES  10   9  92 W18G25    29.80R WCI  -8
LONG PRAIRIE   LGT SNOW  12   9  85 SW15G23   29.85R WCI  -4
LITTLE FALLS   FLURRIES  14   9  79 W15G21    29.84R WCI  -1
LITCHFIELD     MIX PCPN  16  10  79 W14G24    29.93R WCI   1
BUFFALO        FLURRIES  17  10  75 W15G25    29.91S WCI   2
MAPLE LAKE     FLURRIES  17  12  79 W14G20    29.90R WCI   3
HUTCHINSON     CLOUDY    16  11  80 W23G32    29.95R WCI  -2
$$
MNZ037-044-045-052-053-071100-
   East Central Minnesota

CITY           SKY/WX    TMP DP  RH WIND       PRES   REMARKS
PRINCETON      CLOUDY    16  10  79 SW9G21    29.84S WCI   4
MORA           PTCLDY    18  10  73 W13G24    29.81R WCI   4
CAMBRIDGE      FLURRIES  18   9  68 SW10G18   29.83R WCI   6
RUSH CITY      CLOUDY    16  10  79 W15G22    29.82S WCI   1
MOOSE LAKE     FLURRIES  19  10  68 W15G23    29.71R WCI   5
HINCKLEY       CLOUDY    19  12  73 W21G28    29.78R WCI   3
CLOQUET        FLURRIES  18  10  73 SW16G24   29.66R WCI   3
MCGREGOR       CLOUDY    18  12  79 W10G20    29.71R WCI   6
$$
MNZ071>073-080-081-089-090-097-098-071100-
   Southwest Minnesota

CITY           SKY/WX    TMP DP  RH WIND       PRES   REMARKS
MONTEVIDEO     CLOUDY    12   7  79 NW17G26   30.01R WCI  -5
GRANITE FALLS  CLEAR     14   8  77 W18       30.03R WCI  -3
CANBY          CLEAR     12   5  75 NW20G26   30.03R WCI  -7
MARSHALL       CLEAR     10   4  76 W25       30.03R WCI -11
REDWOOD FALLS  CLEAR     13   4  67 W21G30    30.01R WCI  -5
OLIVIA         PTCLDY    16  10  79 W22       29.98R WCI  -2
PIPESTONE      CLEAR      9   3  78 NW22G32   30.04R WCI -11
WINDOM         CLEAR     10   5  79 W18G26    30.03R WCI  -8
WORTHINGTON    CLEAR      9   4  80 W23       30.05R WCI -11
JACKSON        CLEAR     10   5  79 W20G29    30.03R WCI  -8
TRACY          CLEAR     11   5  77 W16G25    30.03R WCI  -6
SLAYTON        CLEAR      8   4  82 W26G37    30.02S WCI -14
$$
MNZ065>067-074>077-082>085-091>093-071100-
   South Central Minnesota

CITY           SKY/WX    TMP DP  RH WIND       PRES   REMARKS
MANKATO        FLURRIES  14   7  73 W26G33    29.99R WCI  -6
NEW ULM        CLOUDY    12   7  79 W20G25    30.02R WCI  -6
ST JAMES       CLEAR     12   7  79 W18G25    30.03S WCI  -5
FAIRMONT       CLEAR     13   7  77 W20       30.04R WCI  -5
GLENCOE        CLOUDY    16  12  82 W12G28    29.96R WCI   3
FARIBAULT      CLOUDY    16   9  73 SW22G28   29.98R WCI  -2
OWATONNA       FLURRIES  16   9  73 W23G30    29.98R WCI  -2
WASECA         FLURRIES  14  10  85 W18G24    30.01R WCI  -3
ALBERT LEA     CLEAR     18  12  79 W13G23    29.99S WCI   4
$$
MNZ078>079-086>088-094>096-071100-
   Southeast Minnesota

CITY           SKY/WX    TMP DP  RH WIND       PRES   REMARKS
ROCHESTER      FLURRIES  14   9  80 W21G26    29.94R WCI  -4
RED WING       FLURRIES  18   9  68 W16G25    29.93R WCI   3
STANTON        FLURRIES  17  10  72 W20       29.95R WCI   1
DODGE CENTER   FLURRIES  14   9  79 W21G26    29.94S WCI  -4
WINONA         PTCLDY    19  12  73 W10G17    29.97S WCI   8
AUSTIN         FLURRIES  14   9  79 W16G24    29.99R WCI  -2
PRESTON        LGT SNOW  13   8  80 W17       29.97S WCI  -4
$$
ABBREVIATIONS USED IN REMARKS
   TC - TEMPERATURES IN CELSIUS
  WCI - WIND CHILL INDEX
   HX - HEAT INDEX
  VSB - VISIBILITY
$$



USA.gov is the U.S. government's official web portal to all federal, state and local government web resources and services.